This is the latest recevied weather packets stored in our database for station/object KO4LFZ. If no packets are shown the sender has not sent any weather packets the latest 10 day(s).
| Time | Temp. | Humidity | Pressure | Rain* | Wind** | Luminosity | Snow |
|---|---|---|---|---|---|---|---|
| 1777651857 | 15.56° C | 49% | 1018.1 hPa | 0 mm | - | 748 W/m² | - |
| 1777651554 | 16.11° C | 46% | 1018.1 hPa | 0 mm | - | 812 W/m² | - |
| 1777651251 | 15.56° C | 45% | 1018 hPa | 0 mm | - | 797 W/m² | - |
| 1777650947 | 15.56° C | 46% | 1018.1 hPa | 0 mm | - | 847 W/m² | - |
| 1777650644 | 15.56° C | 46% | 1018.1 hPa | 0 mm | - | 847 W/m² | - |
| 1777650342 | 15.56° C | 46% | 1018.1 hPa | 0 mm | - | 847 W/m² | - |
| 1777650033 | 15.56° C | 46% | 1018 hPa | 0 mm | - | 878 W/m² | - |
| 1777649731 | 15.56° C | 47% | 1017.7 hPa | 0 mm | - | 787 W/m² | - |
| 1777649427 | 15.56° C | 48% | 1017.8 hPa | 0 mm | - | 718 W/m² | - |
| 1777649124 | 15.56° C | 47% | 1017.8 hPa | 0 mm | - | 774 W/m² | - |
| 1777648822 | 15.56° C | 50% | 1017.7 hPa | 0 mm | - | 736 W/m² | - |
| 1777648518 | 15° C | 50% | 1017.7 hPa | 0 mm | - | 725 W/m² | - |
| 1777648215 | 15° C | 51% | 1017.9 hPa | 0 mm | - | 762 W/m² | - |
| 1777647910 | 15° C | 52% | 1017.9 hPa | 0 mm | - | 703 W/m² | - |
| 1777647607 | 14.44° C | 54% | 1017.9 hPa | 0 mm | - | 695 W/m² | - |
| 1777647303 | 15° C | 51% | 1017.9 hPa | 0 mm | - | 696 W/m² | - |
| 1777647001 | 15° C | 51% | 1017.9 hPa | 0 mm | - | 605 W/m² | - |
| 1777646697 | 14.44° C | 54% | 1017.6 hPa | 0 mm | - | 589 W/m² | - |
| 1777646393 | 14.44° C | 51% | 1017.8 hPa | 0 mm | - | 615 W/m² | - |
| 1777646089 | 14.44° C | 52% | 1017.6 hPa | 0 mm | - | 643 W/m² | - |
| 1777645786 | 15° C | 57% | 1017.3 hPa | 0 mm | - | 597 W/m² | - |
| 1777645484 | 15° C | 57% | 1017.3 hPa | 0 mm | - | 597 W/m² | - |
| 1777645179 | 14.44° C | 61% | 1017.2 hPa | 0 mm | - | 587 W/m² | - |
| 1777644875 | 14.44° C | 64% | 1017.2 hPa | 0 mm | - | 564 W/m² | - |
| 1777644573 | 14.44° C | 62% | 1016.8 hPa | 0 mm | - | 540 W/m² | - |
* Rain latest hour (hover to see other rain measurements)
** Current wind speed in m/s (hover to see current wind gust speed)